Regional Weather Roundup
Issued by NWS Upton, NY

Current Version | Previous Version | Text Only | Print | Product List | Glossary On
Versions: 1 2 3 4 5 6 7 8 9 10 11 12 13 14 15 16 17 18 19 20 21 22 23 24 25 26 27 28 29 30 31 32 33 34 35 36 37 38 39 40 41 42 43 44 45 46 47 48 49 50
509 ASUS41 KOKX 281705 RWROKX REGIONAL WEATHER ROUNDUP NATIONAL WEATHER SERVICE NEW YORK NY 100 PM EDT WED SEP 28 2016 NOTE: "FAIR" INDICATES FEW OR NO CLOUDS BELOW 12,000 FEET WITH NO SIGNIFICANT WEATHER AND/OR OBSTRUCTIONS TO VISIBILITY. NYZ071-072-176-178-NJZ106-104-281800- NEW YORK CITY METRO AREA CITY SKY/WX TMP DP RH WIND PRES REMARKS Central Park CLOUDY 67 58 72 NE10 30.16R LaGuardia APRT CLOUDY 70 59 68 E18 30.13R Kennedy INTL CLOUDY 69 58 67 E12 30.13R Newark/Liberty CLOUDY 70 59 68 E10 30.12R Bronx Bot Gard N/A 64 57 77 NE10 30.13F Wall St Helipt CLOUDY N/A N/A N/A NE14G22 30.13R Teterboro CLOUDY 68 57 68 E12G17 30.13R $$ NYZ177-179-078>081-281800- LONG ISLAND NEW YORK CITY SKY/WX TMP DP RH WIND PRES REMARKS Farmingdale CLOUDY 66 58 75 E9 30.13R MacArthur/ISP CLOUDY 64 57 78 E14 30.13R Shirley NOT AVBL Riverhead NOT AVBL Westhampton CLOUDY 64 55 72 NE18G30 30.15S Southampton N/A 64 57 77 NE13 30.10S Bridgehampton N/A 63 57 82 E5 29.99F East Hampton CLOUDY 62 55 76 NE12G20 30.14S Montauk N/A 63 56 78 NE12G23 30.16R $$ NYZ052-065-067-281800- HUDSON VALLEY CITY SKY/WX TMP DP RH WIND PRES REMARKS White Plains CLOUDY 64 55 72 NE9 30.14S Newburgh PTSUNNY 66 57 72 E12 30.16F Montgomery CLOUDY 67 55 65 NE12 30.15F Poughkeepsie PTSUNNY 66 54 65 NE10 30.15S Albany CLOUDY 67 52 58 E8 30.19S $$ NJZ001-105-106-008-010-013-015-019>022-104-281800- NEW JERSEY CITY SKY/WX TMP DP RH WIND PRES REMARKS Newark/Liberty CLOUDY 70 59 68 E10 30.12R Teterboro CLOUDY 68 57 68 E12G17 30.13R Caldwell CLOUDY 68 57 68 E10 30.13R Morristown CLOUDY 68 59 73 E13G21 30.13 Somerville CLOUDY 70 58 65 VRB5 30.09S Linden NOT AVBL Sussex CLOUDY 63 58 83 NE7 30.15R Abdover N/A 65 58 78 VRB3 30.13S Trenton CLOUDY 69 60 73 E13G18 30.09S Millville LGT RAIN 68 68 100 E15 30.03F Atlantic City CLOUDY 70 62 76 NE10 30.10R Wrightstown PTSUNNY 70 62 74 E15G25 30.05S Toms River PTSUNNY 71 62 73 E12G21 30.09R Belmar CLOUDY 68 63 84 E14 30.11R $$ PAZ047>061-062-071-281800- EASTERN PENNSYLVANIA CITY SKY/WX TMP DP RH WIND PRES REMARKS Philadelphia CLOUDY 69 64 84 NE8 30.06F Allentown PTSUNNY 71 58 63 E14G23 30.10S Scranton CLOUDY 67 55 65 E13G20 30.11S $$ CTZ002-004>006-009-010-012-RIZ004-006-007-MAZ004-011-015-281800- SOUTHERN NEW ENGLAND IN CT CITY SKY/WX TMP DP RH WIND PRES REMARKS Bradley INTL CLOUDY 62 50 64 E14 30.21S Hartford CLOUDY 62 52 69 NE15G21 30.19R Danbury CLOUDY 62 52 69 E10 30.17S Wtrbury/Oxford CLOUDY 61 50 67 E13 30.18S Bridgeport CLOUDY 66 54 65 NE14 30.15R Meriden CLOUDY 64 52 64 NE13G22 30.17S New Haven CLOUDY 65 53 65 NE14G22 30.16R Chester NOT AVBL Groton CLOUDY 67 54 63 NE18 30.15S Wilimantic CLOUDY 62 53 72 NE13 30.20R IN RI CITY SKY/WX TMP DP RH WIND PRES REMARKS Providence PTSUNNY 62 53 72 NE21 30.20R Block Island CLOUDY 63 56 78 NE18G28 30.15S Westerly CLOUDY 65 53 65 NE13G23 30.17S IN MA CITY SKY/WX TMP DP RH WIND PRES REMARKS Boston CLOUDY 57 52 83 NE18G28 30.25S Worcester CLOUDY 53 49 86 NE12G23 30.24R Westfield CLOUDY 61 51 70 NE13G18 30.22R Provincetown CLOUDY 60 56 86 NE20G28 30.21R Nantucket CLOUDY 63 59 87 NE18G30 30.14R FOG $$ ANZ330-335-338-340-345-350-353-355-281800- COASTAL MARINE OBSERVATIONS STATION/POSITION TIME SKY/WX TEMP WIND PRES VSBY WAVE AIR SEA DIR/SP/G HT/PER (UTC) (F) (DEG/KT/KT) (MB) (MI) (FT/S) NY HARB ENTRANCE 1550 68 71 60/ 19/ 25 1018.7 5/ 5 20S FIRE ISLAND 1550 67 69 70/ 23/ 27 1017.9 6/ 5 GREAT SOUTH BAY 1630 65 69 70/ 16/ 21 N/A 23 SSW MONTAUK P 1550 63 68 50/ 25/ 29 1019.6 7/ 6 15 E BARNEGAT LI 1630 71 N/A 6/ 5 HUDSON CANYON 1550 69 69 1016.8 4/ 5 KINGS POINT 1630 67 72 1019.8 EXECUTION ROCKS 1645 67 70/ 19/ 23 N/A CENTRAL LI SOUND 1615 64 71 60/ 19/ 25 N/A 3/ 4 EASTERN LI SOUND NOT AVBL ROBBINS REEF 1630 68 70/ 14/ 19 1019.6 $$ >>>>>>>>>>>>>>>>>>>>>>>>>>>> KEY <<<<<<<<<<<<<<<<<<<<<<<<<<< > < > SKY/WX - Sky Condition/Present Weather < > TMP - Temperature in Fahrenheit < > DP - Dew Point in Fahrenheit < > RH - Relative Humidity in Percent < > WIND - Direction (from) and Speed in MPH < > PRES - Mean Sea Level Pressure (inches of Hg) < > WCI - Wind Chill Index < > VSB - VISIBILITY IN MILES < > HX - HEAT INDEX < > TC - TEMPERATURE IN CELSIUS < > VRB - VARIABLE WIND DIRECTION < > < >>>>>>>>>>>>>>>>>>>>>>>>>>>> KEY <<<<<<<<<<<<<<<<<<<<<<<<<<<

USA.gov is the U.S. government's official web portal to all federal, state and local government web resources and services.